Time,TemperatureF,DewpointF,PressureIn,WindDirection,WindDirectionDegrees,WindSpeedMPH,WindSpeedGustMPH,Humidity,HourlyPrecipIn,Conditions,Clouds,dailyrainin,SoftwareType,DateUTC
2013-05-21 00:01:00,70.8,65.0,29.95,SSW,203,0.0,-999.0,82,0.00,,,0.00,,2013-05-21 04:01:00,
2013-05-21 00:06:00,70.8,65.4,29.94,SSW,203,0.0,-999.0,83,0.00,,,0.00,,2013-05-21 04:06:00,
2013-05-21 00:11:00,70.7,65.3,29.94,SSW,203,0.0,-999.0,83,0.00,,,0.00,,2013-05-21 04:11:00,
2013-05-21 00:16:00,70.7,65.3,29.94,SSW,203,0.0,-999.0,83,0.00,,,0.00,,2013-05-21 04:16:00,
2013-05-21 00:21:00,70.5,65.1,29.94,SSW,203,0.0,-999.0,83,0.00,,,0.00,,2013-05-21 04:21:00,
2013-05-21 00:26:00,70.3,64.9,29.94,SSW,203,0.0,-999.0,83,0.00,,,0.00,,2013-05-21 04:26:00,
2013-05-21 00:31:00,70.3,64.9,29.94,SSW,203,0.0,-999.0,83,0.00,,,0.00,,2013-05-21 04:31:00,
2013-05-21 00:36:00,70.3,65.2,29.94,SSW,203,0.0,-999.0,84,0.00,,,0.00,,2013-05-21 04:36:00,
2013-05-21 00:41:00,70.1,65.0,29.94,SSW,203,0.0,-999.0,84,0.00,,,0.00,,2013-05-21 04:41:00,
2013-05-21 00:46:00,69.9,64.9,29.94,SSW,203,0.0,-999.0,84,0.00,,,0.00,,2013-05-21 04:46:00,
2013-05-21 00:56:00,69.6,64.6,29.94,SSW,203,0.0,-999.0,84,0.00,,,0.00,,2013-05-21 04:56:00,
2013-05-21 01:06:00,69.4,64.7,29.93,SSW,203,0.0,-999.0,85,0.00,,,0.00,,2013-05-21 05:06:00,
2013-05-21 01:16:00,69.0,64.6,29.93,SSW,203,0.0,-999.0,86,0.00,,,0.00,,2013-05-21 05:16:00,
2013-05-21 01:21:00,68.9,64.5,29.93,SSW,203,0.0,-999.0,86,0.00,,,0.00,,2013-05-21 05:21:00,
2013-05-21 01:26:00,68.7,64.3,29.93,SSW,203,0.0,-999.0,86,0.00,,,0.00,,2013-05-21 05:26:00,
2013-05-21 01:36:00,68.7,64.3,29.93,SSW,203,0.0,-999.0,86,0.00,,,0.00,,2013-05-21 05:36:00,
2013-05-21 01:46:00,68.5,64.5,29.92,SSW,203,0.0,-999.0,87,0.00,,,0.00,,2013-05-21 05:46:00,
2013-05-21 01:56:00,68.5,64.5,29.92,SSW,203,0.0,-999.0,87,0.00,,,0.00,,2013-05-21 05:56:00,
2013-05-21 02:01:00,68.3,64.3,29.92,SSW,203,0.0,-999.0,87,0.00,,,0.00,,2013-05-21 06:01:00,
2013-05-21 02:06:00,68.1,64.1,29.92,SSW,203,0.0,-999.0,87,0.00,,,0.00,,2013-05-21 06:06:00,
2013-05-21 02:16:00,67.8,64.1,29.93,SSW,203,0.0,-999.0,88,0.00,,,0.00,,2013-05-21 06:16:00,
2013-05-21 02:26:00,67.6,63.9,29.93,SSW,203,0.0,-999.0,88,0.00,,,0.00,,2013-05-21 06:26:00,
2013-05-21 02:36:00,67.2,63.5,29.92,SSW,203,0.0,-999.0,88,0.00,,,0.00,,2013-05-21 06:36:00,
2013-05-21 02:46:00,67.1,63.4,29.93,North,0,0.0,-999.0,88,0.00,,,0.00,,2013-05-21 06:46:00,
2013-05-21 02:56:00,66.9,63.6,29.93,SSW,203,0.0,-999.0,89,0.00,,,0.00,,2013-05-21 06:56:00,
2013-05-21 03:01:00,66.7,63.4,29.93,SSW,203,0.0,-999.0,89,0.00,,,0.00,,2013-05-21 07:01:00,
2013-05-21 03:06:00,66.7,63.4,29.93,SSW,203,0.0,-999.0,89,0.00,,,0.00,,2013-05-21 07:06:00,
2013-05-21 03:16:00,66.5,63.2,29.93,SSW,203,0.0,-999.0,89,0.00,,,0.00,,2013-05-21 07:16:00,
2013-05-21 03:26:00,66.5,63.2,29.93,SSW,203,0.0,-999.0,89,0.00,,,0.00,,2013-05-21 07:26:00,
2013-05-21 03:36:00,66.5,63.5,29.94,SSW,203,0.0,-999.0,90,0.00,,,0.00,,2013-05-21 07:36:00,
2013-05-21 03:46:00,66.5,63.5,29.94,SSW,203,0.0,-999.0,90,0.00,,,0.00,,2013-05-21 07:46:00,
2013-05-21 03:56:00,66.2,63.2,29.94,SSW,203,0.0,-999.0,90,0.00,,,0.00,,2013-05-21 07:56:00,
2013-05-21 04:01:00,66.0,63.0,29.94,SSW,203,0.0,-999.0,90,0.00,,,0.00,,2013-05-21 08:01:00,
2013-05-21 04:06:00,66.0,63.0,29.94,SSW,203,0.0,-999.0,90,0.00,,,0.00,,2013-05-21 08:06:00,
2013-05-21 04:16:00,66.0,63.0,29.93,SSW,203,0.0,-999.0,90,0.00,,,0.00,,2013-05-21 08:16:00,
2013-05-21 04:21:00,66.0,63.0,29.94,SSW,203,0.0,-999.0,90,0.00,,,0.00,,2013-05-21 08:21:00,
2013-05-21 04:26:00,66.0,63.0,29.94,SSW,203,0.0,-999.0,90,0.00,,,0.00,,2013-05-21 08:26:00,
2013-05-21 04:36:00,66.0,63.0,29.94,SSW,203,0.0,-999.0,90,0.00,,,0.00,,2013-05-21 08:36:00,
2013-05-21 04:46:00,66.0,63.0,29.94,SSW,203,0.0,-999.0,90,0.00,,,0.00,,2013-05-21 08:46:00,
2013-05-21 04:51:00,66.0,63.0,29.94,SSW,203,0.0,-999.0,90,0.00,,,0.00,,2013-05-21 08:51:00,
2013-05-21 04:56:00,66.0,63.0,29.93,SSW,203,0.0,-999.0,90,0.00,,,0.00,,2013-05-21 08:56:00,
2013-05-21 05:01:00,66.0,63.0,29.94,SSW,203,0.0,-999.0,90,0.00,,,0.00,,2013-05-21 09:01:00,
2013-05-21 05:06:00,66.0,63.0,29.94,SSW,203,0.0,-999.0,90,0.00,,,0.00,,2013-05-21 09:06:00,
2013-05-21 05:16:00,66.0,63.0,29.94,SSW,203,0.0,-999.0,90,0.00,,,0.00,,2013-05-21 09:16:00,
2013-05-21 05:21:00,65.8,62.8,29.93,SSW,203,0.0,-999.0,90,0.00,,,0.00,,2013-05-21 09:21:00,
2013-05-21 05:26:00,65.8,62.8,29.94,SSW,203,0.0,-999.0,90,0.00,,,0.00,,2013-05-21 09:26:00,
2013-05-21 05:36:00,65.8,62.8,29.95,SSW,203,0.0,-999.0,90,0.00,,,0.00,,2013-05-21 09:36:00,
2013-05-21 05:46:00,65.6,62.6,29.95,SSW,203,0.0,-999.0,90,0.00,,,0.00,,2013-05-21 09:46:00,
2013-05-21 05:56:00,65.4,62.4,29.96,SSW,203,0.0,-999.0,90,0.00,,,0.00,,2013-05-21 09:56:00,
2013-05-21 06:01:00,65.4,62.7,29.96,SSW,203,0.0,-999.0,91,0.00,,,0.00,,2013-05-21 10:01:00,
2013-05-21 06:06:00,65.4,62.7,29.96,SSW,203,0.0,-999.0,91,0.00,,,0.00,,2013-05-21 10:06:00,
2013-05-21 06:16:00,65.6,62.9,29.96,SSW,203,0.0,-999.0,91,0.00,,,0.00,,2013-05-21 10:16:00,
2013-05-21 06:21:00,65.4,62.7,29.96,SSW,203,0.0,-999.0,91,0.00,,,0.00,,2013-05-21 10:21:00,
2013-05-21 06:26:00,65.4,62.7,29.96,SSW,203,0.0,-999.0,91,0.00,,,0.00,,2013-05-21 10:26:00,
2013-05-21 06:31:00,65.4,62.7,29.96,SSW,203,0.0,-999.0,91,0.00,,,0.00,,2013-05-21 10:31:00,
2013-05-21 06:36:00,65.6,62.9,29.95,SSW,203,0.0,-999.0,91,0.00,,,0.00,,2013-05-21 10:36:00,
2013-05-21 06:46:00,65.6,62.9,29.95,SSW,203,0.0,-999.0,91,0.00,,,0.00,,2013-05-21 10:46:00,
2013-05-21 06:51:00,65.8,63.1,29.95,SSW,203,0.0,-999.0,91,0.00,,,0.00,,2013-05-21 10:51:00,
2013-05-21 06:56:00,65.8,63.1,29.95,SSW,203,0.0,-999.0,91,0.00,,,0.00,,2013-05-21 10:56:00,
2013-05-21 07:06:00,66.0,63.3,29.96,SSW,203,0.0,-999.0,91,0.00,,,0.00,,2013-05-21 11:06:00,
2013-05-21 07:16:00,66.3,63.6,29.96,SSW,203,0.0,-999.0,91,0.00,,,0.00,,2013-05-21 11:16:00,
2013-05-21 07:21:00,66.3,63.6,29.96,SW,225,0.0,-999.0,91,0.00,,,0.00,,2013-05-21 11:21:00,
2013-05-21 07:26:00,66.5,63.8,29.96,SW,225,0.0,-999.0,91,0.00,,,0.00,,2013-05-21 11:26:00,
2013-05-21 07:31:00,66.7,64.0,29.96,SW,225,0.0,-999.0,91,0.00,,,0.00,,2013-05-21 11:31:00,
2013-05-21 07:36:00,66.7,64.0,29.96,SW,225,0.0,-999.0,91,0.00,,,0.00,,2013-05-21 11:36:00,
2013-05-21 07:46:00,67.2,64.5,29.96,SW,225,0.0,-999.0,91,0.00,,,0.00,,2013-05-21 11:46:00,
2013-05-21 07:56:00,67.6,64.9,29.95,SW,225,0.0,-999.0,91,0.00,,,0.00,,2013-05-21 11:56:00,
2013-05-21 08:01:00,67.8,65.1,29.96,SSW,203,0.0,-999.0,91,0.00,,,0.00,,2013-05-21 12:01:00,
2013-05-21 08:06:00,67.8,65.1,29.96,West,270,0.0,-999.0,91,0.00,,,0.00,,2013-05-21 12:06:00,
2013-05-21 08:16:00,68.7,66.0,29.96,WSW,248,0.0,-999.0,91,0.00,,,0.00,,2013-05-21 12:16:00,
2013-05-21 08:26:00,69.6,66.5,29.96,NW,315,0.0,-999.0,90,0.00,,,0.00,,2013-05-21 12:26:00,
2013-05-21 08:31:00,69.9,66.8,29.97,SW,225,0.0,-999.0,90,0.00,,,0.00,,2013-05-21 12:31:00,
2013-05-21 08:36:00,70.1,66.7,29.96,SW,225,0.0,-999.0,89,0.00,,,0.00,,2013-05-21 12:36:00,
2013-05-21 08:41:00,70.5,67.1,29.96,SSW,203,0.0,-999.0,89,0.00,,,0.00,,2013-05-21 12:41:00,
2013-05-21 08:46:00,70.7,67.0,29.96,SSW,203,0.0,-999.0,88,0.00,,,0.00,,2013-05-21 12:46:00,
2013-05-21 08:56:00,71.2,67.1,29.95,SSW,203,0.0,-999.0,87,0.00,,,0.00,,2013-05-21 12:56:00,
2013-05-21 09:01:00,71.6,67.5,29.94,SSW,203,0.0,-999.0,87,0.00,,,0.00,,2013-05-21 13:01:00,
2013-05-21 09:06:00,71.9,67.8,29.94,SW,225,0.0,-999.0,87,0.00,,,0.00,,2013-05-21 13:06:00,
2013-05-21 09:16:00,72.5,67.7,29.95,WSW,248,0.0,-999.0,85,0.00,,,0.00,,2013-05-21 13:16:00,
2013-05-21 09:21:00,72.8,68.0,29.96,SW,225,0.0,-999.0,85,0.00,,,0.00,,2013-05-21 13:21:00,
2013-05-21 09:26:00,72.8,67.7,29.96,SW,225,0.0,-999.0,84,0.00,,,0.00,,2013-05-21 13:26:00,
2013-05-21 09:36:00,73.0,67.9,29.96,SW,225,0.0,-999.0,84,0.00,,,0.00,,2013-05-21 13:36:00,
2013-05-21 09:46:00,73.2,68.1,29.95,WSW,248,0.0,-999.0,84,0.00,,,0.00,,2013-05-21 13:46:00,
2013-05-21 09:56:00,73.7,68.2,29.94,NNW,338,0.0,-999.0,83,0.00,,,0.00,,2013-05-21 13:56:00,
2013-05-21 10:01:00,74.1,68.6,29.95,WNW,293,0.0,-999.0,83,0.00,,,0.00,,2013-05-21 14:01:00,
2013-05-21 10:06:00,74.4,68.9,29.95,SW,225,0.0,-999.0,83,0.00,,,0.00,,2013-05-21 14:06:00,
2013-05-21 10:11:00,74.8,68.9,29.94,WNW,293,0.0,-999.0,82,0.00,,,0.00,,2013-05-21 14:11:00,
2013-05-21 10:16:00,75.0,68.8,29.94,WNW,293,0.0,-999.0,81,0.00,,,0.00,,2013-05-21 14:16:00,
2013-05-21 10:26:00,75.5,69.3,29.94,West,270,0.0,-999.0,81,0.00,,,0.00,,2013-05-21 14:26:00,
2013-05-21 10:31:00,75.9,69.7,29.94,WSW,248,0.0,-999.0,81,0.00,,,0.00,,2013-05-21 14:31:00,
2013-05-21 10:36:00,76.1,69.9,29.94,SW,225,0.0,-999.0,81,0.00,,,0.00,,2013-05-21 14:36:00,
2013-05-21 10:46:00,76.8,70.2,29.93,West,270,0.0,-999.0,80,0.00,,,0.00,,2013-05-21 14:46:00,
2013-05-21 10:56:00,77.7,70.3,29.94,West,270,0.0,-999.0,78,0.00,,,0.00,,2013-05-21 14:56:00,
2013-05-21 11:01:00,78.0,70.2,29.94,NNE,23,0.0,-999.0,77,0.00,,,0.00,,2013-05-21 15:01:00,
2013-05-21 11:06:00,78.2,70.4,29.93,North,0,0.0,-999.0,77,0.00,,,0.00,,2013-05-21 15:06:00,
2013-05-21 11:16:00,78.6,70.4,29.93,WNW,293,0.0,-999.0,76,0.00,,,0.00,,2013-05-21 15:16:00,
2013-05-21 11:21:00,79.3,71.1,29.92,NNW,338,0.0,-999.0,76,0.00,,,0.00,,2013-05-21 15:21:00,
2013-05-21 11:26:00,79.5,71.3,29.92,North,0,0.0,-999.0,76,0.00,,,0.00,,2013-05-21 15:26:00,
2013-05-21 11:36:00,80.7,71.2,29.92,SW,225,0.0,-999.0,73,0.00,,,0.00,,2013-05-21 15:36:00,
2013-05-21 11:46:00,81.5,70.8,29.92,WSW,248,0.0,-999.0,70,0.00,,,0.00,,2013-05-21 15:46:00,
2013-05-21 11:56:00,82.2,71.4,29.92,SSW,203,0.0,-999.0,70,0.00,,,0.00,,2013-05-21 15:56:00,
2013-05-21 12:01:00,82.2,70.6,29.92,SSW,203,0.0,-999.0,68,0.00,,,0.00,,2013-05-21 16:01:00,
2013-05-21 12:06:00,81.8,70.2,29.92,NW,315,0.0,-999.0,68,0.00,,,0.00,,2013-05-21 16:06:00,
2013-05-21 12:16:00,81.3,68.9,29.92,WNW,293,0.0,-999.0,66,0.00,,,0.00,,2013-05-21 16:16:00,
2013-05-21 12:26:00,81.3,68.9,29.92,WNW,293,0.0,-999.0,66,0.00,,,0.00,,2013-05-21 16:26:00,
2013-05-21 12:36:00,81.6,69.1,29.93,NNW,338,0.0,-999.0,66,0.00,,,0.00,,2013-05-21 16:36:00,
2013-05-21 12:46:00,82.2,69.7,29.92,WNW,293,0.0,-999.0,66,0.00,,,0.00,,2013-05-21 16:46:00,
2013-05-21 12:56:00,82.2,68.8,29.92,WSW,248,0.0,-999.0,64,0.00,,,0.00,,2013-05-21 16:56:00,
2013-05-21 13:01:00,82.7,69.7,29.92,SSW,203,0.0,-999.0,65,0.00,,,0.00,,2013-05-21 17:01:00,
2013-05-21 13:06:00,83.3,69.9,29.91,SSW,203,0.0,-999.0,64,0.00,,,0.00,,2013-05-21 17:06:00,
2013-05-21 13:16:00,83.8,70.3,29.90,NW,315,0.0,-999.0,64,0.00,,,0.00,,2013-05-21 17:16:00,
2013-05-21 13:26:00,84.0,70.1,29.90,WSW,248,0.0,-999.0,63,0.00,,,0.00,,2013-05-21 17:26:00,
2013-05-21 13:31:00,84.5,70.5,29.91,WSW,248,0.0,-999.0,63,0.00,,,0.00,,2013-05-21 17:31:00,
2013-05-21 13:36:00,84.9,70.9,29.90,WSW,248,0.0,-999.0,63,0.00,,,0.00,,2013-05-21 17:36:00,
2013-05-21 13:46:00,85.2,70.7,29.90,WSW,248,0.0,-999.0,62,0.00,,,0.00,,2013-05-21 17:46:00,
2013-05-21 13:51:00,84.9,70.4,29.90,SW,225,0.0,-999.0,62,0.00,,,0.00,,2013-05-21 17:51:00,
2013-05-21 13:56:00,84.7,69.3,29.91,SSW,203,0.0,-999.0,60,0.00,,,0.00,,2013-05-21 17:56:00,
2013-05-21 14:01:00,84.0,68.6,29.90,SW,225,0.0,-999.0,60,0.00,,,0.00,,2013-05-21 18:01:00,
2013-05-21 14:06:00,84.0,68.6,29.90,SSW,203,6.0,-999.0,60,0.00,,,0.00,,2013-05-21 18:06:00,
2013-05-21 14:16:00,83.4,69.0,29.90,WSW,248,7.0,-999.0,62,0.00,,,0.00,,2013-05-21 18:16:00,
2013-05-21 14:26:00,83.4,70.0,29.90,WSW,248,0.0,-999.0,64,0.00,,,0.00,,2013-05-21 18:26:00,
2013-05-21 14:31:00,83.6,70.1,29.89,WSW,248,1.0,-999.0,64,0.00,,,0.00,,2013-05-21 18:31:00,
2013-05-21 14:36:00,83.8,69.9,29.89,WSW,248,0.0,-999.0,63,0.00,,,0.00,,2013-05-21 18:36:00,
2013-05-21 14:41:00,83.4,69.5,29.88,WSW,248,0.0,-999.0,63,0.00,,,0.00,,2013-05-21 18:41:00,
2013-05-21 14:46:00,83.4,69.5,29.88,WSW,248,0.0,-999.0,63,0.00,,,0.00,,2013-05-21 18:46:00,
2013-05-21 14:56:00,84.0,70.5,29.88,WSW,248,0.0,-999.0,64,0.00,,,0.00,,2013-05-21 18:56:00,
2013-05-21 15:06:00,84.9,69.5,29.88,WSW,248,6.0,-999.0,60,0.00,,,0.00,,2013-05-21 19:06:00,
2013-05-21 15:16:00,84.7,69.8,29.87,WSW,248,3.0,-999.0,61,0.00,,,0.00,,2013-05-21 19:16:00,
2013-05-21 15:21:00,85.6,70.1,29.87,WSW,248,0.0,-999.0,60,0.00,,,0.00,,2013-05-21 19:21:00,
2013-05-21 15:26:00,85.8,70.3,29.87,WSW,248,3.0,-999.0,60,0.00,,,0.00,,2013-05-21 19:26:00,
2013-05-21 15:36:00,85.6,68.6,29.87,WSW,248,0.0,-999.0,57,0.00,,,0.00,,2013-05-21 19:36:00,
2013-05-21 15:41:00,85.2,69.3,29.87,WSW,248,7.0,-999.0,59,0.00,,,0.00,,2013-05-21 19:41:00,
2013-05-21 15:46:00,85.6,69.6,29.86,WSW,248,5.0,-999.0,59,0.00,,,0.00,,2013-05-21 19:46:00,
2013-05-21 15:56:00,85.8,68.8,29.86,WSW,248,5.0,-999.0,57,0.00,,,0.00,,2013-05-21 19:56:00,
2013-05-21 16:01:00,85.8,68.8,29.86,WSW,248,0.0,-999.0,57,0.00,,,0.00,,2013-05-21 20:01:00,
2013-05-21 16:06:00,85.8,69.3,29.85,WSW,248,0.0,-999.0,58,0.00,,,0.00,,2013-05-21 20:06:00,
2013-05-21 16:16:00,86.1,70.1,29.84,WSW,248,0.0,-999.0,59,0.00,,,0.00,,2013-05-21 20:16:00,
2013-05-21 16:21:00,86.1,69.1,29.84,WSW,248,0.0,-999.0,57,0.00,,,0.00,,2013-05-21 20:21:00,
2013-05-21 16:26:00,86.1,69.1,29.84,WSW,248,4.0,-999.0,57,0.00,,,0.00,,2013-05-21 20:26:00,
2013-05-21 16:36:00,86.5,69.5,29.84,WSW,248,3.0,-999.0,57,0.00,,,0.00,,2013-05-21 20:36:00,
2013-05-21 16:41:00,86.9,70.4,29.84,WSW,248,1.0,-999.0,58,0.00,,,0.00,,2013-05-21 20:41:00,
2013-05-21 16:46:00,86.9,69.8,29.84,WSW,248,1.0,-999.0,57,0.00,,,0.00,,2013-05-21 20:46:00,
2013-05-21 16:56:00,87.6,70.5,29.84,WSW,248,0.0,-999.0,57,0.00,,,0.00,,2013-05-21 20:56:00,
2013-05-21 17:01:00,87.2,70.1,29.84,WSW,248,0.0,-999.0,57,0.00,,,0.00,,2013-05-21 21:01:00,
2013-05-21 17:06:00,86.7,69.7,29.84,WSW,248,0.0,-999.0,57,0.00,,,0.00,,2013-05-21 21:06:00,
2013-05-21 17:16:00,86.9,70.4,29.83,WSW,248,1.0,-999.0,58,0.00,,,0.00,,2013-05-21 21:16:00,
2013-05-21 17:26:00,87.4,70.8,29.83,WSW,248,1.0,-999.0,58,0.00,,,0.00,,2013-05-21 21:26:00,
2013-05-21 17:31:00,87.6,70.5,29.83,WSW,248,0.0,-999.0,57,0.00,,,0.00,,2013-05-21 21:31:00,
2013-05-21 17:36:00,87.6,70.5,29.83,WSW,248,4.0,-999.0,57,0.00,,,0.00,,2013-05-21 21:36:00,
2013-05-21 17:46:00,87.8,70.2,29.83,WSW,248,3.0,-999.0,56,0.00,,,0.00,,2013-05-21 21:46:00,
2013-05-21 17:51:00,87.6,70.0,29.83,WSW,248,0.0,-999.0,56,0.00,,,0.00,,2013-05-21 21:51:00,
2013-05-21 17:56:00,87.6,70.0,29.83,WSW,248,0.0,-999.0,56,0.00,,,0.00,,2013-05-21 21:56:00,
2013-05-21 18:01:00,87.6,70.0,29.83,WSW,248,0.0,-999.0,56,0.00,,,0.00,,2013-05-21 22:01:00,
2013-05-21 18:06:00,87.4,69.3,29.83,WSW,248,0.0,-999.0,55,0.00,,,0.00,,2013-05-21 22:06:00,
2013-05-21 18:16:00,87.0,69.4,29.83,WSW,248,0.0,-999.0,56,0.00,,,0.00,,2013-05-21 22:16:00,
2013-05-21 18:21:00,86.7,68.6,29.83,WSW,248,3.0,-999.0,55,0.00,,,0.00,,2013-05-21 22:21:00,
2013-05-21 18:26:00,86.5,69.0,29.83,WSW,248,1.0,-999.0,56,0.00,,,0.00,,2013-05-21 22:26:00,
2013-05-21 18:31:00,86.3,68.8,29.82,WSW,248,0.0,-999.0,56,0.00,,,0.00,,2013-05-21 22:31:00,
2013-05-21 18:36:00,86.0,69.0,29.83,WSW,248,0.0,-999.0,57,0.00,,,0.00,,2013-05-21 22:36:00,
2013-05-21 18:46:00,85.6,68.6,29.83,WSW,248,0.0,-999.0,57,0.00,,,0.00,,2013-05-21 22:46:00,
2013-05-21 18:56:00,84.9,68.5,29.83,WSW,248,0.0,-999.0,58,0.00,,,0.00,,2013-05-21 22:56:00,
2013-05-21 19:01:00,84.7,68.8,29.83,WSW,248,0.0,-999.0,59,0.00,,,0.00,,2013-05-21 23:01:00,
2013-05-21 19:06:00,84.7,68.8,29.83,WSW,248,0.0,-999.0,59,0.00,,,0.00,,2013-05-21 23:06:00,
2013-05-21 19:16:00,84.3,68.4,29.83,SSW,203,0.0,-999.0,59,0.00,,,0.00,,2013-05-21 23:16:00,
2013-05-21 19:26:00,84.0,67.6,29.83,West,270,2.0,-999.0,58,0.00,,,0.00,,2013-05-21 23:26:00,
2013-05-21 19:36:00,83.4,67.6,29.83,SW,225,0.0,-999.0,59,0.00,,,0.00,,2013-05-21 23:36:00,
2013-05-21 19:41:00,83.1,67.3,29.83,WSW,248,0.0,-999.0,59,0.00,,,0.00,,2013-05-21 23:41:00,
2013-05-21 19:46:00,83.1,67.3,29.83,WSW,248,0.0,-999.0,59,0.00,,,0.00,,2013-05-21 23:46:00,
2013-05-21 19:51:00,82.5,67.2,29.83,SW,225,3.0,-999.0,60,0.00,,,0.00,,2013-05-21 23:51:00,
2013-05-21 19:56:00,82.2,66.9,29.83,West,270,0.0,-999.0,60,0.00,,,0.00,,2013-05-21 23:56:00,
2013-05-21 20:06:00,81.6,66.9,29.83,SSW,203,1.0,-999.0,61,0.00,,,0.00,,2013-05-22 00:06:00,
2013-05-21 20:16:00,80.9,66.7,29.84,SSW,203,0.0,-999.0,62,0.00,,,0.00,,2013-05-22 00:16:00,
2013-05-21 20:26:00,80.2,66.9,29.84,SSW,203,0.0,-999.0,64,0.00,,,0.00,,2013-05-22 00:26:00,
2013-05-21 20:36:00,79.5,66.7,29.84,SSW,203,0.0,-999.0,65,0.00,,,0.00,,2013-05-22 00:36:00,
2013-05-21 20:41:00,78.9,66.1,29.84,SSW,203,0.0,-999.0,65,0.00,,,0.00,,2013-05-22 00:41:00,
2013-05-21 20:47:00,78.6,66.3,29.84,SW,225,0.0,-999.0,66,0.00,,,0.00,,2013-05-22 00:47:00,
2013-05-21 20:56:00,78.2,66.4,29.83,SW,225,0.0,-999.0,67,0.00,,,0.00,,2013-05-22 00:56:00,
2013-05-21 21:01:00,77.9,66.1,29.84,SW,225,0.0,-999.0,67,0.00,,,0.00,,2013-05-22 01:01:00,
2013-05-21 21:06:00,77.7,65.9,29.84,SW,225,0.0,-999.0,67,0.00,,,0.00,,2013-05-22 01:06:00,
2013-05-21 21:16:00,77.5,66.1,29.84,SSW,203,0.0,-999.0,68,0.00,,,0.00,,2013-05-22 01:16:00,
2013-05-21 21:21:00,77.3,65.9,29.84,SSW,203,0.0,-999.0,68,0.00,,,0.00,,2013-05-22 01:21:00,
2013-05-21 21:26:00,77.1,66.2,29.84,SSW,203,0.0,-999.0,69,0.00,,,0.00,,2013-05-22 01:26:00,
2013-05-21 21:31:00,77.1,66.2,29.85,SSW,203,2.0,-999.0,69,0.00,,,0.00,,2013-05-22 01:31:00,
2013-05-21 21:36:00,77.1,66.2,29.85,SSW,203,0.0,-999.0,69,0.00,,,0.00,,2013-05-22 01:36:00,
2013-05-21 21:46:00,77.5,65.7,29.87,WNW,293,4.0,-999.0,67,0.00,,,0.00,,2013-05-22 01:46:00,
2013-05-21 21:56:00,76.2,63.1,29.86,West,270,0.0,-999.0,64,0.00,,,0.00,,2013-05-22 01:56:00,
2013-05-21 22:01:00,75.2,63.1,29.86,West,270,0.0,-999.0,66,0.00,,,0.00,,2013-05-22 02:01:00,
2013-05-21 22:11:00,74.1,62.5,29.86,West,270,0.0,-999.0,67,0.00,,,0.00,,2013-05-22 02:11:00,
2013-05-21 22:16:00,73.9,62.7,29.86,West,270,2.0,-999.0,68,0.00,,,0.00,,2013-05-22 02:16:00,
2013-05-21 22:26:00,73.4,62.2,29.86,West,270,0.0,-999.0,68,0.00,,,0.00,,2013-05-22 02:26:00,
2013-05-21 22:31:00,73.2,62.0,29.87,West,270,0.0,-999.0,68,0.00,,,0.00,,2013-05-22 02:31:00,
2013-05-21 22:36:00,73.2,62.4,29.86,West,270,0.0,-999.0,69,0.00,,,0.00,,2013-05-22 02:36:00,
2013-05-21 22:46:00,73.0,63.1,29.87,SW,225,0.0,-999.0,71,0.00,,,0.00,,2013-05-22 02:46:00,
2013-05-21 22:51:00,72.3,63.6,29.87,SW,225,0.0,-999.0,74,0.00,,,0.00,,2013-05-22 02:51:00,
2013-05-21 22:56:00,72.1,63.7,29.87,SW,225,0.0,-999.0,75,0.00,,,0.00,,2013-05-22 02:56:00,
2013-05-21 23:01:00,71.4,63.4,29.86,SW,225,0.0,-999.0,76,0.00,,,0.00,,2013-05-22 03:01:00,
2013-05-21 23:06:00,71.4,63.8,29.87,SW,225,0.0,-999.0,77,0.00,,,0.00,,2013-05-22 03:06:00,
2013-05-21 23:16:00,71.2,64.0,29.87,SW,225,0.0,-999.0,78,0.00,,,0.00,,2013-05-22 03:16:00,
2013-05-21 23:21:00,71.2,64.4,29.87,SW,225,0.0,-999.0,79,0.00,,,0.00,,2013-05-22 03:21:00,
2013-05-21 23:26:00,71.2,64.0,29.87,SW,225,0.0,-999.0,78,0.00,,,0.00,,2013-05-22 03:26:00,
2013-05-21 23:36:00,70.8,63.6,29.87,SW,225,0.0,-999.0,78,0.00,,,0.00,,2013-05-22 03:36:00,
2013-05-21 23:46:00,70.5,63.3,29.86,SW,225,0.0,-999.0,78,0.00,,,0.00,,2013-05-22 03:46:00,
2013-05-21 23:56:00,70.3,63.1,29.86,SW,225,0.0,-999.0,78,0.00,,,0.00,,2013-05-22 03:56:00,